Location: Kapuskasing
(49.3803°N, 82.4001°W)
Time: 13:56:47
(UTC-05:00)

RS-44 - Pass Details

Date: 14 December 2025
Orbit: 1174 x 1511 km, 82.5° (Epoch: 21 January)

Event Time Altitude Azimuth Distance (km) Brightness Sun altitude
Exits shadow 05:30:33 10° 338° (NNW) 3,613 ? -26.0°
Drops below altitude 10° 05:30:41 10° 339° (NNW) 3,624 ? -26.0°
Sets 05:36:23 0° 9° (N) 4,540 ? -25.1°
